Location: Archemont
(49.1579°N, 1.7598°E)
Time: 11:32:51
(UTC+00:00)

Cosmos 1606 Rocket - Pass Details

Date: 03 February 2023
Orbit: 602 x 630 km, 82.5° (Epoch: 25 March)

Event Time Altitude Azimuth Distance (km) Brightness Sun altitude
Rises 18:27:55 0° 347° (NNW) 2,868 7.1 -15.8°
Reaches altitude 10° 18:30:10 10° 343° (NNW) 1,960 6.2 -16.1°
Maximum altitude 18:34:25 59° 265° (W) 700 4.1 -16.8°
Drops below altitude 10° 18:38:39 10° 186° (S) 1,950 6.2 -17.5°
Sets 18:40:53 0° 182° (S) 2,852 7.1 -17.9°
